EW9931 Weather Reports


Display with metric or nautical units.
time (UTC)temp
F
wind
direction
speed
MPH
gust
MPH
rain 1hr
in
rain 24hr
in
rain mn
in
humidity
%
barometer
mb
20240622183039 74 247 3.0 0.0 0.00 0.00 0.00 21 1001.6
20240622181540 75 192 1.0 0.0 0.00 0.00 0.00 21 1001.5
20240622180029 74 240 3.0 0.0 0.00 0.00 0.00 21 1002.6
20240622174523 73 230 2.0 0.0 0.00 0.00 0.00 19 1002.5
20240622173021 74 263 1.0 0.0 0.00 0.00 0.00 20 1002.4
20240622171515 73 155 1.0 0.0 0.00 0.00 0.00 22 1002.2
20240622170010 73 311 2.0 0.0 0.00 0.00 0.00 19 1002.4
20240622164508 73 227 2.0 0.0 0.00 0.00 0.00 20 1002.3
20240622163001 72 251 2.0 0.0 0.00 0.00 0.00 20 1002.1
20240622161557 72 188 2.0 0.0 0.00 0.00 0.00 20 1002.1
20240622160052 71 247 2.0 0.0 0.00 0.00 0.00 20 1001.7
20240622154557 70 175 3.0 0.0 0.00 0.00 0.00 20 1001.7
20240622153049 69 226 2.0 0.0 0.00 0.00 0.00 20 1001.5
20240622151539 69 164 2.0 0.0 0.00 0.00 0.00 21 1001.8
20240622150043 68 131 2.0 0.0 0.00 0.00 0.00 21 1001.2
20240622144530 68 154 1.0 0.0 0.00 0.00 0.00 20 1001.2
20240622143026 67 203 1.0 0.0 0.00 0.00 0.00 19 1001.6
20240622141524 66 184 1.0 0.0 0.00 0.00 0.00 18 1001.3
20240622140025 66 229 2.0 0.0 0.00 0.00 0.00 18 1000.7
20240622134515 66 131 1.0 0.0 0.00 0.00 0.00 17 1000.7
20240622133008 66 147 2.0 0.0 0.00 0.00 0.00 16 1000.4
20240622131504 66 38 2.0 0.0 0.00 0.00 0.00 16 1000.2
20240622130003 66 120 3.0 0.0 0.00 0.00 0.00 16 999.7
20240622124504 66 185 3.0 0.0 0.00 0.00 0.00 15 999.6
20240622123004 66 104 2.0 0.0 0.00 0.00 0.00 15 999.6
20240622121501 66 124 1.0 0.0 0.00 0.00 0.00 14 999.6
20240622120001 66 124 2.0 0.0 0.00 0.00 0.00 13 999.4
20240622114600 66 144 2.0 0.0 0.00 0.00 0.00 14 999.4
20240622113059 66 143 3.0 0.0 0.00 0.00 0.00 14 999.6
20240622111559 66 117 3.0 0.0 0.00 0.00 0.00 15 999.4
20240622110058 66 178 2.0 0.0 0.00 0.00 0.00 17 998.7
20240622104558 66 191 2.0 0.0 0.00 0.00 0.00 19 998.6
20240622103057 66 178 3.0 0.0 0.00 0.00 0.00 20 998.4
20240622101600 66 161 3.0 0.0 0.00 0.00 0.00 20 998.4
20240622100056 66 162 4.0 0.0 0.00 0.00 0.00 19 998.3
20240622094554 66 161 3.0 0.0 0.00 0.00 0.00 19 998.5
20240622093053 66 184 3.0 0.0 0.00 0.00 0.00 17 998.1
20240622091552 66 224 3.0 0.0 0.00 0.00 0.00 16 998.3
20240622090057 67 222 3.0 0.0 0.00 0.00 0.00 13 998.3
20240622084549 67 220 3.0 0.0 0.00 0.00 0.00 12 998.3
20240622083048 66 130 2.0 0.0 0.00 0.00 0.00 11 998.6
20240622081548 66 103 1.0 0.0 0.00 0.00 0.00 11 998.8
20240622080047 66 175 2.0 0.0 0.00 0.00 0.00 11 998.9
20240622074555 66 158 2.0 0.0 0.00 0.00 0.00 11 999.3
20240622073047 66 151 2.0 0.0 0.00 0.00 0.00 12 998.9
20240622071602 66 151 2.0 0.0 0.00 0.00 0.00 11 999.4
20240622070043 66 174 2.0 0.0 0.00 0.00 0.00 11 999.4
20240622064542 65 164 2.0 0.0 0.00 0.00 0.00 11 999.4
20240622063041 64 165 2.0 0.0 0.00 0.00 0.00 14 999.8
20240622061541 62 165 1.0 0.0 0.00 0.00 0.00 19 1000.0
20240622060043 61 165 1.0 0.0 0.00 0.00 0.00 22 1000.4
20240622054539 60 165 0.0 0.0 0.00 0.00 0.00 23 1000.9
20240622053039 59 164 0.0 0.0 0.00 0.00 0.00 25 1000.9
20240622051541 60 176 0.0 0.0 0.00 0.00 0.00 24 1000.4
20240622050038 61 165 0.0 0.0 0.00 0.00 0.00 23 1001.2
20240622044538 63 165 0.0 0.0 0.00 0.00 0.00 20 1000.5
20240622043042 64 165 0.0 0.0 0.00 0.00 0.00 20 1000.2
20240622041537 65 165 2.0 0.0 0.00 0.00 0.00 18 999.8
20240622040052 65 164 2.0 0.0 0.00 0.00 0.00 18 1000.0
20240622034535 65 165 2.0 0.0 0.00 0.00 0.00 18 1000.0
20240622033036 66 165 2.0 0.0 0.00 0.00 0.00 17 999.9
20240622031542 67 164 2.0 0.0 0.00 0.00 0.00 15 999.7
20240622030035 67 164 3.0 0.0 0.00 0.00 0.00 15 1000.6
20240622024534 68 161 2.0 0.0 0.00 0.00 0.00 15 1000.6
20240622023044 68 202 2.0 0.0 0.00 0.00 0.00 15 1000.4
20240622021533 69 227 1.0 0.0 0.00 0.00 0.00 17 1000.4
20240622020033 69 128 1.0 0.0 0.00 0.00 0.00 16 1002.1
20240622014532 70 251 1.0 0.0 0.00 0.00 0.00 17 1001.5
20240622013032 71 202 2.0 0.0 0.00 0.00 0.00 16 1001.4
20240622011543 71 117 3.0 0.0 0.00 0.00 0.00 17 1001.1
20240622010030 72 174 2.0 0.0 0.00 0.00 0.00 17 1001.4
20240622004526 72 260 3.0 0.0 0.00 0.00 0.00 18 1001.4
20240622003026 71 131 3.0 0.0 0.00 0.00 0.00 21 1001.3
20240622001524 72 240 3.0 0.0 0.00 0.00 0.00 20 1001.0
20240622000037 72 186 3.0 0.0 0.00 0.00 0.00 20 1000.7
20240621234533 73 182 4.0 0.0 0.00 0.00 0.00 20 1000.7
20240621233030 73 144 4.0 0.0 0.00 0.00 0.00 22 1000.7
20240621231521 73 137 4.0 0.0 0.00 0.00 0.00 21 1000.9
20240621230020 73 133 3.0 0.0 0.00 0.00 0.00 21 1001.0
20240621224528 73 126 3.0 0.0 0.00 0.00 0.00 20 1001.0
20240621223023 73 112 4.0 0.0 0.00 0.00 0.00 19 1000.9
20240621221520 73 226 4.0 0.0 0.00 0.00 0.00 17 1001.0
20240621220021 74 233 3.0 0.0 0.00 0.00 0.00 17 1000.7
20240621214516 74 274 4.0 0.0 0.00 0.00 0.00 18 1000.6
20240621213026 74 171 4.0 0.0 0.00 0.00 0.00 16 1000.7
20240621211513 76 258 1.0 0.0 0.00 0.00 0.00 14 1000.8
20240621210013 76 267 1.0 0.0 0.00 0.00 0.00 14 1001.0
20240621204509 75 137 3.0 0.0 0.00 0.00 0.00 13 1000.9
20240621203005 75 241 2.0 0.0 0.00 0.00 0.00 16 1000.7
20240621201505 74 239 3.0 0.0 0.00 0.00 0.00 13 1000.9
20240621200005 74 243 2.0 0.0 0.00 0.00 0.00 15 1000.9
20240621194503 75 202 1.0 0.0 0.00 0.00 0.00 15 1000.8
20240621193006 75 244 2.0 0.0 0.00 0.00 0.00 15 1000.7
20240621191558 74 137 1.0 0.0 0.00 0.00 0.00 15 1000.9
20240621190058 73 100 1.0 0.0 0.00 0.00 0.00 16 1000.1
20240621184628 73 239 1.0 0.0 0.00 0.00 0.00 15 1000.6